This demonstration page uses our WeatherBlox Daily Observations layout. Learn more.

Left ArrowRight Arrow

47.50024, -111.30081

Hourly Observations for October 6, 2022

Temp ( °F °C ) Dew Point ( °F °C ) Humidity (%) Winds ( mph kmh ) Pressure ( in mb ) Visibility ( mi km ) Precip ( " mm )
12:53 am 00:53 Mostly Clear 54 12.2 46 7.8 74 74 ENE 8 13 30.24 1024 10 16 0.00 0.00
1:53 am 01:53 Partly Cloudy 51 10.6 45 7.2 79 79 N 3 6 30.25 1024 10 16 0.00 0.00
2:53 am 02:53 Partly Cloudy 49 9.4 44 6.7 83 83 N 9 15 30.29 1026 10 16 0.00 0.00
3:53 am 03:53 Cloudy 46 7.8 40 4.4 79 79 NNW 13 20 30.32 1027 10 16 0.00 0.00
4:53 am 04:53 Cloudy 44 6.7 39 3.9 82 82 N 12 19 30.38 1029 10 16 0.00 0.00
5:53 am 05:53 Mostly Cloudy 42 5.6 38 3.3 85 85 NNW 7 11 30.42 1030 10 16 0.00 0.00
6:53 am 06:53 Cloudy 41 5 38 3.3 89 89 NNW 3 6 30.46 1032 10 16 0.00 0.00
7:53 am 07:53 Mostly Cloudy 39 3.9 37 2.8 93 93 W 5 7 30.49 1033 10 16 0.00 0.00
8:53 am 08:53 Mostly Cloudy 43 6.1 38 3.3 82 82 NW 8 13 30.49 1033 10 16 0.00 0.00
9:53 am 09:53 Cloudy 45 7.2 39 3.9 80 80 NW 8 13 30.50 1033 10 16 0.00 0.00
10:53 am 10:53 Mostly Cloudy 49 9.4 39 3.9 68 68 Calm 30.49 1033 10 16 0.00 0.00
11:14 am 11:14 Mostly Cloudy 50 10 40 4.4 68 68 VRB 3 6 30.45 1031 10 16 0.00 0.00
11:53 am 11:53 Mostly Cloudy 49 9.4 39 3.9 68 68 Calm 30.50 1033 10 16 0.00 0.00
12:53 pm 12:53 Cloudy 52 11.1 40 4.4 63 63 VRB 5 7 30.47 1032 10 16 0.00 0.00
1:53 pm 13:53 Mostly Cloudy 53 11.7 40 4.4 61 61 E 6 9 30.47 1032 10 16 0.00 0.00
2:44 pm 14:44 Partly Cloudy 53 11.7 41 5 63 63 VRB 3 6 30.38 1029 10 16 0.00 0.00
2:53 pm 14:53 Mostly Sunny 54 12.2 41 5 61 61 VRB 3 6 30.45 1031 10 16 0.00 0.00
3:53 pm 15:53 Sunny 56 13.3 42 5.6 60 60 ENE 5 7 30.45 1031 10 16 0.00 0.00
4:53 pm 16:53 Mostly Cloudy 56 13.3 42 5.6 60 60 E 8 13 30.45 1031 10 16 0.00 0.00
5:53 pm 17:53 Sunny 55 12.8 42 5.6 62 62 E 6 9 30.45 1031 10 16 0.00 0.00
6:53 pm 18:53 Mostly Cloudy 52 11.1 42 5.6 69 69 NE 10 17 30.46 1032 10 16 0.00 0.00
7:53 pm 19:53 Clear 49 9.4 42 5.6 77 77 ENE 7 11 30.48 1032 10 16 0.00 0.00
8:53 pm 20:53 Clear 48 8.9 42 5.6 80 80 ENE 8 13 30.48 1032 10 16 0.00 0.00
9:53 pm 21:53 Clear 44 6.7 40 4.4 85 85 ENE 7 11 30.48 1032 10 16 0.00 0.00
10:53 pm 22:53 Clear 44 6.7 41 5 89 89 NE 6 9 30.48 1032 10 16 0.00 0.00
11:53 pm 23:53 Clear 40 4.4 39 3.9 97 97 SW 6 9 30.49 1033 10 16 0.00 0.00

Powered by AerisWeather